Location: *
(57.8420°S, 159.8600°W)
Time: 03:32:11
(UTC+00:00)

SKYMED 2 - Pass Details

Date: 18 May 2021
Orbit: 621 x 624 km, 97.9° (Epoch: 22 June)

Event Time Altitude Azimuth Distance (km) Brightness Sun altitude
Rises 03:12:36 0° 26° (NNE) 2,914 7.0 -6.1°
Reaches altitude 10° 03:14:47 10° 28° (NNE) 2,015 6.2 -6.3°
Maximum altitude 03:19:09 69° 109° (ESE) 684 3.6 -6.8°
Drops below altitude 10° 03:23:34 10° 193° (SSW) 2,040 6.1 -7.4°
Sets 03:25:48 0° 194° (SSW) 2,954 6.9 -7.6°
